Regional Weather Roundup
Issued by NWS Sterling, VA

Home | Current Version | Previous Version | Text Only | Print | Product List | Glossary Off
Versions: 1 2 3 4 5 6 7 8 9 10 11 12 13 14 15 16 17 18 19 20 21 22 23 24 25 26 27 28 29 30 31 32 33 34 35 36 37 38 39 40 41 42 43 44 45 46 47 48 49 50

281
ASUS41 KLWX 181411
RWRLWX

REGIONAL WEATHER ROUNDUP
NATIONAL WEATHER SERVICE BALTIMORE MD/WASHINGTON DC
900 AM EST THU JAN 18 2018

Note: "FAIR" indicates few or no clouds below 12,000 feet
with no significant weather and/or obstructions to visibility.
 TC=TEMPERATURE CELSIUS

 * =Non NWS site. Station does not report precipitation (e.g. rain,
    snow, etc.), thunder, or fog.

DCZ001-MDZ009-015-VAZ040>042-051-053>054-181500-
WASHINGTON METRO

CITY           SKY/WX    TMP DP  RH WIND       PRES   REMARKS
WASHINGTON NAT FAIR      25   6  44 NW10      30.20F WCI  15
DULLES         FAIR      25   5  42 NW12      30.18F WCI  14
ANDREWS AFB    FAIR      22   6  48 NW16      30.16S WCI   9
FT BELVOIR     FAIR      27   4  37 W6        30.20S WCI  20
COLLEGE PARK*  FAIR      22   5  47 W3        30.18S
LEESBURG*      FAIR      28  10  47 NW21G32   30.18F WCI  15
MANASSAS*      FAIR      26  14  60 VRB3      30.20F
GAITHERSBURG*  FAIR      22   8  55 W12       30.15F WCI  10

$$

MDZ006>007-011-014-181500-
BALTIMORE METRO

CITY           SKY/WX    TMP DP  RH WIND       PRES   REMARKS
BWI AIRPORT    FAIR      23   8  52 W8        30.16S WCI  14
MD SCIENCE CTR   N/A     23   6  48 MISG      30.17S
MARTIN STATE   SUNNY     21  10  63 SW5       30.19S WCI  15
ANNAPOLIS        N/A     25   9  50 NW6       30.17S WCI  18
FORT MEADE*    FAIR      23   9  54 W13G18    30.19S WCI  11

$$

MDZ012-015-019>023-181500-
MARYLAND EASTERN SHORE

CITY           SKY/WX    TMP DP  RH WIND       PRES   REMARKS
OCEAN CITY     FAIR      23  10  57 NW13      30.14  WCI  11
SALISBURY      FAIR      23  10  57 NW15G21   30.16F WCI  10
BAY BRIDGE AP* FAIR      23   7  50 MISG      30.18S
CAMBRIDGE*     SUNNY     25   9  50 NW9G16    30.19R WCI  15
EASTON*        MOSUNNY   25   9  50 NW12      30.21R WCI  14

$$

MDZ017>025-181500-
SOUTHERN MARYLAND

CITY           SKY/WX    TMP DP  RH WIND       PRES   REMARKS
PATUXENT RIVER MOSUNNY   24   9  52 NW18      30.19R WCI  10
ST INIGOES     FAIR      24   6  46 NW7       30.19R WCI  16
LEONARDTOWN*   NOT AVBL

$$

MDZ003>005-181500-
NORTH CENTRAL MARYLAND

CITY           SKY/WX    TMP DP  RH WIND       PRES   REMARKS
FREDERICK*     SUNNY     25   1  36 W9G22     30.20F WCI  15
HAGERSTOWN APT FAIR      22   6  50 SW7       30.15S WCI  13
WESTMINSTER*   FAIR      19   7  58 W7        30.10F WCI  10

$$

MDZ501>502-181500-
WESTERN MARYLAND

CITY           SKY/WX    TMP DP  RH WIND       PRES   REMARKS
OAKLAND*       FAIR       9   5  85 W20G29    30.08R WCI -11
CUMBERLAND*    FAIR      27   7  43 S6        30.25  WCI  20

$$

VAZ025>031-181500-
SHENANDOAH VALLEY

CITY           SKY/WX    TMP DP  RH WIND       PRES   REMARKS
WINCHESTER*    FAIR      27   1  33 W6        30.18S WCI  20
FRONT ROYAL*   FAIR      21   5  49 MISG      30.16F
LURAY*         FAIR      19  10  68 SW9       30.18S WCI   9
NEW MARKET*    FAIR      15   4  61 SW7       30.18S WCI   5
STAUNTON*      FAIR      15   6  69 CALM      30.20S
WAYNESBORO*    FAIR      20   1  42 SW14      30.17S WCI   7

$$

WVZ021-048>050-054>055-181500-
EASTERN WEST VIRGINIA PANHANDLE

CITY           SKY/WX    TMP DP  RH WIND       PRES   REMARKS
MARTINSBURG    FAIR      24   5  44 S5        30.17S WCI  18
PETERSBURG*    FAIR       9   3  78 SE3       30.21S

$$

VAZ036>039-050-181500-
CENTRAL FOOTHILLS

CITY           SKY/WX    TMP DP  RH WIND       PRES   REMARKS
CHARLOTTESVILL FAIR      26   3  37 SW3       30.17F
CULPEPER*      FAIR      19   8  61 CALM      30.19F
ORANGE*        FAIR      16   9  73 CALM      30.17F
GORDONSVILLE*  FAIR      22   7  54 SW5       30.17F WCI  15
WARRENTON*     FAIR      20   7  56 CALM      30.18F

$$

VAZ055>057-181500-
NORTH AND CENTRAL PIEDMONT

CITY           SKY/WX    TMP DP  RH WIND       PRES   REMARKS
FREDERICKSBRG* FAIR      23  11  61 W3        30.20F
STAFFORD*      FAIR      20  11  69 CALM      30.24F

$$

NCZ024-NYZ072-PAZ021-071-VAZ022-071-181500-
OTHER REGIONAL OBSERVATIONS

CITY           SKY/WX    TMP DP  RH WIND       PRES   REMARKS
NEW YORK CITY  FAIR      21   8  57 NW12G18   30.05F WCI   9
PHILADELPHIA   FAIR      23   5  46 NW9       30.13S WCI  13
PITTSBURGH     FAIR      11   5  77 SW15      30.20R WCI  -5
ROANOKE        FAIR      20   4  50 W16       30.29S WCI   6
RICHMOND       FAIR      21   9  59 W6        30.21S WCI  13
RALEIGH        FAIR      15   9  76 VRB5      30.29S WCI   8

$$

ANZ530>537-181500-
MARINE OBSERVATIONS

STATION/POSITION TIME  TEMP    WIND        PRES
                       AIR SEA DIR/SP/G
                 (UTC) (F)     (DEG/KT/KT) (MB)
THOMAS PT LIGHT  1400   23 31  310/  9/ 10   N/A
BALT KEY BRIDGE  1348   21     270/  9/ 11 1021.8F
COVE POINT       1348   22     340/ 17/ 21 1022.9R
LEWISETTA        1348   24 31  340/ 11/ 15 1022.8R
SOLOMONS ISLAND  1348   23 33  330/ 15/ 22 1022.1R
PINEY POINT      1348          340/ 15/ 18   N/A

$$





USA.gov is the U.S. government's official web portal to all federal, state and local government web resources and services.